[keps] orb10245.2l.amsat

Ray Hoad ray.hoad at mypbmail.com
Thu Sep 2 20:33:42 PDT 2010


SB KEPS @ AMSAT  $ORB10245.N
2Line Orbital Elements 10245.AMSAT

HR AMSAT ORBITAL ELEMENTS FOR AMATEUR SATELLITES IN NASA FORMAT
FROM WA5QGD FORT WORTH,TX September 2, 2010
Send Subscribe/unsubscribe to KEPS at http://www.amsat.org/mailman/listinfo/keps
BID: ORB10245.N

DECODE 2-LINE ELSETS WITH THE FOLLOWING KEY:
1 AAAAAU 00  0  0 BBBBB.BBBBBBBB  .CCCCCCCC  00000-0  00000-0 0  DDDZ
2 AAAAA EEE.EEEE FFF.FFFF GGGGGGG HHH.HHHH III.IIII JJ.JJJJJJJJKKKKKZ
KEY: A-CATALOGNUM B-EPOCHTIME C-DECAY D-ELSETNUM E-INCLINATION F-RAAN
G-ECCENTRICITY H-ARGPERIGEE I-MNANOM J-MNMOTION K-ORBITNUM Z-CHECKSUM

TO ALL RADIO AMATEURS BT

AO-07
1 07530U 74089B   10244.57725897 -.00000027  00000-0  10000-3 0 08694
2 07530 101.4009 257.4793 0011966 123.2328 236.9890 12.53579459638029
FO-29
1 24278U 96046B   10244.93958390  .00000005  00000-0  44264-4 0 03976
2 24278 098.5165 063.4665 0349826 284.8294 071.4356 13.52952080693489
SO-33
1 25509U 98061B   10245.70058623 -.00000125  00000-0 -39640-4 0  7868
2 25509 031.4342 070.1809 0354425 247.6569 108.6097 14.28325373619147
RS-22
1 27939U 03042A   10245.65922830  .00000061  00000-0  20447-4 0  5079
2 27939 097.8804 107.8151 0013439 170.1351 190.0139 14.63447412370288
VO-52
1 28650U 05017B   10245.18268040  .00000478  00000-0  66583-4 0  5868
2 28650 097.6844 295.5847 0027790 026.7626 333.5225 14.81799950288098
SO-67
1 35870U 09049F   10245.81935444  .00000396  00000-0  20857-4 0   697
2 35870 097.3246 292.8739 0002995 155.7886 328.7117 15.21026404 53250
HO-68
1 36122U 09072B   10245.77643856 -.00000045  00000-0  00000 0 0  6367
2 36122 100.4624 305.3954 0007484 157.5292 202.6145 13.16281663 34426
UO-11
1 14781U 84021B   10245.57882365 -.00000016  00000-0  50100-5 0  3298
2 14781 098.0488 297.5243 0009195 355.5622 004.5521 14.79829167423251
AO-16
1 20439U 90005D   10245.75469115  .00000005  00000-0  17534-4 0  9845
2 20439 098.3392 200.6368 0010246 300.5820 059.4350 14.31872052 76484
LO-19
1 20442U 90005G   10245.46050651 -.00000094  00000-0 -19548-4 0  8934
2 20442 098.3006 205.8439 0011017 294.1552 065.8470 14.32101575 76618
AO-27
1 22825U 93061C   10245.71782852  .00000017  00000-0  23622-4 0  6163
2 22825 098.4909 191.6835 0009153 045.1854 315.0061 14.29306351883120
IO-26
1 22826U 93061D   10245.41943109  .00000026  00000-0  26703-4 0  3547
2 22826 098.4851 191.9652 0009702 041.3555 318.8361 14.29563596883190
GO-32
1 25397U 98043D   10245.15551257 -.00000167  00000-0 -55798-4 0  2732
2 25397 098.3173 248.3758 0002040 062.4510 297.6873 14.23183138630993
NO-44
1 26931U 01043C   10244.74061774 -.00000191  00000-0 -42238-4 0 05493
2 26931 067.0533 006.7366 0005160 269.2682 090.7827 14.29607916465690
SO-50
1 27607U 02058C   10245.20962927 -.00000028  00000-0  17244-4 0  2598
2 27607 064.5569 122.5669 0039363 042.8413 317.5740 14.71570651413716
CO-55
1 27844U 03031E   10245.07133855  .00000038  00000-0  37919-4 0  9260
2 27844 098.7104 252.9469 0009526 315.4555 044.5849 14.20726485372008
CO-57
1 27848U 03031J   10245.53480324  .00000047  00000-0  42254-4 0  8741
2 27848 098.7157 252.5126 0009494 318.2484 041.7967 14.20518085372029
AO-51
1 28375U 04025K   10244.47605718  .00000025  00000-0  20323-4 0  7635
2 28375 098.0681 233.6521 0082781 225.8616 133.5746 14.40696783324496
GENESAT1
1 29655U 06058C   10216.61700559  .10637092  69904-5  33715-3 0  2265
2 29655 040.0059 067.3006 0005079 297.8744 064.7087 16.44862838207776
CP3
1 31129U 07012N   10244.07249080  .00000085  00000-0  30324-4 0 06678
2 31129 097.9353 279.5629 0102718 359.2190 000.8791 14.52296897178871
CO-65
1 32785U 08021C   10245.28608097  .00000425  00000-0  60502-4 0  7736
2 32785 097.8899 309.1204 0015731 037.2322 322.9999 14.81707737126908
KKS-1
1 33493U 09002B   10245.88173944  .00000400  00000-0  58564-4 0  8152
2 33493 098.0937 006.0728 0018680 248.9508 110.9700 14.81081602 86982
SOHLA-1
1 33496U 09002E   10244.83138231  .00000122  00000-0  28891-4 0  1928
2 33496 098.0632 352.9337 0006103 328.6762 031.4085 14.69512557 86135
TISAT-1
1 36799U 10035E   10245.72895719  .00000295  00000-0  46069-4 0   876
2 36799 098.1414 305.6288 0016489 122.1665 238.1143 14.80155481  7787
STUDSAT
1 36801U 10035G   10245.34327518  .00000736  00000-0  10530-3 0   586
2 36801 098.1445 305.1887 0015036 112.0518 248.2292 14.79617248  7720
NOAA-10
1 16969U 86073A   10244.69803470 -.00000034  00000-0  41646-5 0 01876
2 16969 098.6524 272.9323 0012429 352.6337 007.4678 14.27425212246499
NOAA-11
1 19531U 88089A   10244.75325764 -.00000221  00000-0 -91553-4 0 01998
2 19531 098.7676 332.4705 0010878 292.8038 067.1991 14.14932896131964
NOAA-12
1 21263U 91032A   10244.85092336  .00000026  00000-0  29696-4 0 06920
2 21263 098.7655 258.0014 0011807 307.9852 052.0254 14.25651254003328
MET-3/5
1 21655U 91056A   10245.51650402  .00000051  00000-0  10000-3 0  9030
2 21655 082.5545 253.9954 0014073 150.4030 209.7893 13.17026543915853
MET-2/21
1 22782U 93055A   10244.36537479  .00000059  00000-0  40108-4 0 08741
2 22782 082.5492 192.0037 0022089 184.8114 175.2830 13.83647313858616
OKEAN-4
1 23317U 94066A   10245.72102413 -.00000011  00000-0 -43535-5 0  3288
2 23317 082.5393 281.4933 0021915 351.4289 008.6548 14.82852783857940
NOAA-14
1 23455U 94089A   10244.85812241 -.00000021  00000-0  12474-4 0 01810
2 23455 098.8750 325.0537 0009854 023.1921 336.9687 14.13792610808335
NOAA-15
1 25338U 98030A   10244.76722536  .00000164  00000-0  88755-4 0 05051
2 25338 098.6263 230.3451 0010121 207.4051 152.6579 14.24852511639656
RESURS
1 25394U 98043A   10244.78502660 -.00000037  00000-0  14129-5 0 05957
2 25394 098.3047 258.6945 0002072 029.6230 330.5063 14.24208236631257
FENGYUN1
1 25730U 99025A   10245.39602625  .00000340  00000-0  22347-3 0  1267
2 25730 098.7897 208.3520 0023353 047.5005 312.8136 14.08264660582550
OKEAN-0
1 25860U 99039A   10245.41457374  .00000040  00000-0  13471-4 0   881
2 25860 097.8413 215.5237 0001149 107.8110 252.3224 14.73658668598278
NOAA-16
1 26536U 00055A   10244.79584017 -.00000164  00000-0 -63423-4 0 09832
2 26536 099.1697 264.0666 0011291 120.1586 240.0680 14.12573838512642
NOAA-17
1 27453U 02032A   10244.71580496  .00000074  00000-0  50425-4 0 09765
2 27453 098.4232 292.0515 0010752 274.3776 085.6164 14.24186167425591
NOAA-18
1 28654U 05018A   10244.72213423 -.00000154  00000-0 -60470-4 0 04644
2 28654 098.9548 190.7840 0013887 194.1071 165.9715 14.11382793272238
NOAA-19
1 33591U 09005A   10244.72689061  .00000051  00000-0  52277-4 0 06603
2 33591 098.7916 185.2339 0015126 073.2412 287.0420 14.11080342080700
HUBBLE
1 20580U 90037B   10245.04443848  .00000431  00000-0  20149-4 0  6389
2 20580 028.4723 098.0892 0003379 294.3708 065.6530 15.01026337916317
ISS
1 25544U 98067A   10246.02087851  .00008494  00000-0  69682-4 0  8218
2 25544 051.6457 192.3593 0008009 327.7100 125.2858 15.71426498675713
CO-58
1 28895U 05043F   10244.67561886  .00000091  00000-0  28250-4 0 06710
2 28895 098.0024 126.5741 0018842 048.3198 311.9613 14.59926648258147
FALCON
1 30776U 07006E   10244.56926002  .00000597  00000-0  45578-4 0 09182
2 30776 035.4348 300.5227 0000319 053.3965 306.6781 15.03789867191562
MAST
1 31126U 07012K   10245.59288253 -.00000128  00000-0 -18378-4 0  9531
2 31126 097.9302 283.5771 0094689 346.2653 013.5974 14.53614353179307
CAPE1
1 31130U 07012P   10244.54797620  .00000457  00000-0  11581-3 0 09747
2 31130 097.9347 279.8472 0102995 358.1766 001.9029 14.52217242178748
COMPASS
1 32787U 08021E   10245.68314439  .00000570  00000-0  78446-4 0  7654
2 32787 097.8872 309.3504 0016561 036.1623 324.0725 14.81953732126975
AAUSAT2
1 32788U 08021F   10245.67862129  .00000596  00000-0  81467-4 0  7574
2 32788 097.8875 309.4901 0016313 038.1451 322.0949 14.82100559126986
DO-64
1 32789U 08021G   10244.80148031  .00000196  00000-0  31178-4 0 07770
2 32789 097.8944 309.1883 0016332 038.8418 321.3976 14.82279558126855
CO-66
1 32791U 08021J   10244.23098813  .00000683  00000-0  93145-4 0 07595
2 32791 097.8901 307.9251 0016863 039.6541 320.5893 14.81726772126719
RS-30
1 32953U 08025A   10245.64046482  .00000010  00000-0  00000 0 0    84
2 32953 082.5072 341.5171 0017673 295.1851 064.7396 12.43007528103365
TACSAT-3
1 35001U 09028A   10244.91436133  .00003467  00000-0  82907-4 0 03881
2 35001 040.4569 112.9831 0021747 223.4306 136.4782 15.42500299072484
PHARMSAT
1 35002U 09028B   10244.90842306  .00003351  00000-0  78985-4 0 03584
2 35002 040.4693 110.7722 0024551 226.1949 133.6816 15.42952956072508
HAWKSAT1
1 35003U 09028C   10245.87386776  .00006889  00000-0  13739-3 0  3793
2 35003 040.4634 097.2710 0023729 251.7201 108.1032 15.46792395 72747
CP6
1 35004U 09028D   10244.91948864  .00008523  00000-0  16259-3 0 03764
2 35004 040.4644 101.4552 0022938 248.8287 111.0076 15.47887536072602
AEROCUB3
1 35005U 09028E   10244.96043757  .00033092  00000-0  44733-3 0 04338
2 35005 040.4684 094.0503 0021923 275.6962 084.1359 15.56716967072693
CASTOR
1 35694U 09038F   10230.44082147  .07179566  12689-4  99310-4 0  6559
2 35694 051.5930 222.0149 0004218 308.0851 053.0105 16.48877011 61107
METEOR-M
1 35865U 09049A   10245.75419222  .00000176  00000-0  10000-3 0  6189
2 35865 098.7506 298.9700 0002772 124.4149 235.7291 14.21831406 49745
RS-38
1 35869U 09049E   10245.78761686  .00000177  00000-0  10000-3 0  6305
2 35869 098.7498 299.0409 0005175 133.5650 226.5927 14.21987762 49757
/EX




More information about the Keps mailing list